Content
SEND FEEDBACK

Daily
Averages
Monthly
Summary
Brazil

TERESINA, PIAUI


Home > South America > Brazil > Piaui
Elevation: 328 feet     Latitude: 05 03S     Longitude: 042 48W

WEATHER
 
SELECT A DAY
Number of Records: 163,885;   Date Range: 6/30/96 - 8/10/14
 
SHARE

PRINT THIS DATA

[ ← Previous Day ]
WEATHER ALMANAC - FEBRUARY 13, 2013
[ Next Day → ]
[ °C ]   °F
Weather ElementAverageHighLow
Temperature82.1 °F93.2 °F (2:00 pm)73.4 °F (10:00 pm)
Dewpoint75.1 °F77 °F (8:00 am)71.6 °F (8:00 pm)
Humidity80.9 %100 % (2:00 am)47 % (3:00 pm)
Barometer28.78 in29.92 in (11:35 pm) (7:00 pm)
Wind Speed2.6 mph10.4 mph (9:20 pm)
Wind Gust24.2 mph (9:20 pm)
Weather ElementAverage
Visibility7.1 mi
Wind DirectionESE (114.4 °)

Weather ElementTotal
Precipitation---
Cooling Degree Days18.3 (Base 65)
Growing Degree Days33.3 (Base 50)
Averaged from 29 records on February 13, 2013
WEATHER CONDITIONS BREAKOUT
WIND DIRECTION BREAKOUT
WEATHER BY HOUR - FEBRUARY 13, 2013
[ °C ]   °F
Local TimeTemperatureDewpointHumidityBarometerVisibilityWind DirectionWind SpeedGust SpeedPrecipitationEventsConditions
1:00 AM75.2 °F73.4 °F94 %29.80 inCalmClear
2:00 AM75.2 °F75.2 °F100 %29.80 inCalmClear
3:00 AM75.0 °F74.0 °F97 %29.78 in12.0 miCalmMostly Cloudy
3:00 AM75.2 °F75.2 °F100 %29.77 inCalmClear
4:00 AM75.2 °F73.4 °F94 %29.77 inCalmClear
5:00 AM75.2 °F75.2 °F100 %29.80 in6.2 miCalmMostly Cloudy
6:00 AM77.0 °F75.2 °F94 %29.80 in6.2 miCalmMostly Cloudy
7:00 AM77.0 °F75.2 °F94 %29.83 in6.2 miSW (230°)1.2 mphMostly Cloudy
8:00 AM82.4 °F77.0 °F84 %29.86 in6.2 miSSE (160°)1.2 mphScattered Clouds
9:00 AM84.0 °F77.0 °F75 %29.87 in12.0 miCalmMostly Cloudy
9:00 AM84.2 °F77.0 °F79 %29.86 in6.2 miCalmMostly Cloudy
10:00 AM86.0 °F77.0 °F74 %29.86 in6.2 miSE (130°)2.3 mphMostly Cloudy
11:00 AM87.8 °F77.0 °F70 %29.86 in6.2 miNNW (330°)1.2 mphScattered Clouds
12:00 PM89.6 °F77.0 °F66 %29.86 in6.2 miSSE (150°)3.5 mphMostly Cloudy
1:00 PM91.4 °F77.0 °F63 %29.83 in6.2 miEast (90°)2.3 mphMostly Cloudy
2:00 PM93.2 °F75.2 °F56 %29.77 in6.2 miEast (80°)1.2 mphScattered Clouds
3:00 PM93.0 °F75.0 °F47 %29.73 in12.0 miSouth (180°)3.5 mphScattered Clouds
3:00 PM93.2 °F75.2 °F56 %29.71 in6.2 miSouth (180°)3.5 mphPartly Cloudy
4:00 PM93.2 °F75.2 °F56 %29.68 in6.2 miSSW (210°)5.8 mphPartly Cloudy
5:00 PM93.2 °F75.2 °F56 %29.71 in6.2 miSW (230°)2.3 mphPartly Cloudy
6:00 PM91.4 °F77.0 °F63 %29.71 in6.2 miWSW (240°)2.3 mphMostly Cloudy
7:00 PM87.8 °F77.0 °F70 %29.74 in6.2 miNW (310°)1.2 mphThunderstormThunderstorm
8:00 PM78.8 °F71.6 °F78 %29.80 in6.2 miNorth (10°)9.2 mphRain-ThunderstormLight Thunderstorms and Rain
9:00 PM75.0 °F73.0 °F92 %29.84 in12.0 miNorth (10°)5.8 mphThunderstormThunderstorm
9:00 PM75.2 °F73.4 °F94 %29.83 in6.2 miNorth (10°)5.8 mphThunderstormThunderstorm
9:20 PM75.2 °F73.4 °F94 %29.89 in6.2 miEast (80°)10.4 mph24.2 mphRain-ThunderstormHeavy Thunderstorms and Rain
10:00 PM73.4 °F73.4 °F100 %6.2 miNW (310°)4.6 mphRain-ThunderstormLight Thunderstorms and Rain
11:00 PM73.4 °F73.4 °F100 %29.89 in6.2 miNorth (10°)4.6 mphRainLight Rain
11:35 PM73.4 °F73.4 °F100 %29.92 in6.2 miSE (140°)2.3 mphRainLight Rain
Hourly data recorded from SBTE, located miles away from Teresina, Piaui







STORIES FROM OUR PARTNERS